Location: Columbia, SC
(34.0000°N, 81.0300°W)
Time: 07:34:26
(UTC-05:00)

Tiangong 1 - Visible Passes

Search period start: 05 December 2016 00:00
Search period end: 15 December 2016 00:00
Orbit: 349 x 370 km, 42.8° (Epoch: 05 December)

Date Brightness Start Highest point End Pass type
(mag) Time Alt. Az. Time Alt. Az. Time Alt. Az.
05 Dec 2.3 18:54:44 10° W 18:57:12 34° NW 18:57:12 34° NW visible
06 Dec 1.0 17:46:48 10° WSW 17:49:49 76° NNW 17:52:43 11° ENE visible
06 Dec 4.1 19:24:02 10° WNW 19:24:25 12° NW 19:24:25 12° NW visible
07 Dec 2.4 18:15:42 10° W 18:18:23 28° NNW 18:19:53 19° NNE visible
08 Dec 3.1 18:44:59 10° NW 18:46:59 17° NNW 18:46:59 17° NNW visible
10 Dec 3.1 18:05:44 10° NW 18:07:46 16° N 18:09:20 12° NNE visible
11 Dec 3.1 18:34:33 10° NW 18:36:20 16° N 18:36:20 16° N visible
12 Dec 3.6 19:02:43 10° NW 19:03:20 13° NNW 19:03:20 13° NNW visible
13 Dec 3.0 17:54:51 10° NW 17:56:54 16° N 17:58:41 11° NE visible
14 Dec 2.3 18:22:51 10° NW 18:25:24 24° NNE 18:25:48 24° NNE visible
